[[{"header":{"parameterUnit":"m.s-1","parameterCategory":1,"la1":30.2991,"la2":30.254,"lo1":-89.0895,"lo2":-89.0444,"dy":0.0017,"dx":0.0017,"nx":28,"ny":28,"refTime":"2025-04-18T09:00:00:Z","depth":0,"parameterNumber":2,"parameterNumberName":"U-component_of_WINDS"},"data":[0,0,0,0,0,0,0,0,0,0,0,0,0,0,0,0,0,0,0,0,0,0,0,0,0,0,0,0,0,0,0,0,0,0,0,0,0,0,0,0,0,0,0,0,0,0,0,0,0,0,0,0,0,0,0,0,0,0,-3.2234,-3.2235,0,-3.2306,-3.2307,-3.2308,-3.2331,-3.2331,-3.2331,-3.233,-3.2406,-3.2408,-3.241,0,0,0,0,0,0,0,0,0,0,0,0,0,-3.2121,-3.2123,-3.2234,-3.2235,-3.2236,-3.2306,-3.2307,-3.2308,-3.2331,-3.2331,-3.2331,-3.233,-3.2405,-3.2408,-3.241,0,0,0,0,0,0,0,0,0,0,0,0,0,-3.2179,-3.2124,-3.2234,-3.2256,-3.2259,-3.2306,-3.2307,-3.2308,-3.2331,-3.2331,-3.2331,-3.233,-3.2404,-3.2407,-3.2411,-3.2441,0,0,-3.2421,-3.2423,0,0,0,0,0,0,0,0,-3.2176,-3.2184,-3.2252,-3.2255,-3.2258,-3.2309,-3.2295,-3.2353,-3.2332,-3.2304,-3.233,-3.233,-3.2374,-3.238,-3.2394,-3.2445,-3.2448,-3.2422,-3.2424,-3.2425,-3.2426,0,0,0,0,0,0,0,-3.2172,-3.2181,-3.2263,-3.2253,-3.2257,-3.2264,-3.2271,-3.2306,-3.2341,-3.2306,-3.2308,-3.2316,-3.2376,-3.2391,-3.2396,-3.2449,-3.2421,-3.2424,-3.2427,-3.2428,-3.2531,-3.2531,0,0,0,0,0,0,-3.2164,-3.2177,-3.2261,-3.2265,-3.2215,-3.2266,-3.2275,-3.2293,-3.2341,-3.2347,-3.2317,-3.2317,-3.2385,-3.2392,-3.2399,-3.2439,-3.2425,-3.2428,-3.243,-3.253,-3.2531,-3.2532,0,0,0,0,0,0,-3.2161,-3.2171,-3.2258,-3.2222,-3.2233,-3.2269,-3.2289,-3.2295,-3.231,-3.2348,-3.2355,-3.2326,-3.2385,-3.2394,-3.2431,-3.2442,-3.243,-3.2433,-3.2529,-3.253,-3.2531,-3.2518,0,0,0,0,0,0,-3.2158,-3.217,-3.2181,-3.2222,-3.2235,-3.2287,-3.229,-3.2297,-3.2316,-3.2317,-3.2359,-3.2365,-3.2386,-3.2426,-3.2434,-3.2446,-3.2436,-3.2529,-3.253,-3.2531,-3.2518,-3.2519,-3.2519,0,0,0,0,0,-3.2154,-3.2175,-3.2181,-3.2191,-3.2249,-3.2288,-3.2295,-3.2318,-3.2317,-3.2329,-3.2354,-3.2364,-3.244,-3.2429,-3.2439,-3.2452,-3.2528,-3.2529,-3.2531,-3.2517,-3.2518,-3.2519,0,0,0,0,0,0,-3.2134,-3.218,-3.2188,-3.2222,-3.2251,-3.2291,-3.2307,-3.2318,-3.2348,-3.2348,-3.2376,-3.2385,-3.242,-3.244,-3.2428,-3.2486,-3.2484,-3.2488,-3.2471,-3.2472,-3.2473,-3.2467,-3.2439,0,0,0,0,0,-3.2134,-3.216,-3.22,-3.2226,-3.224,-3.2271,-3.2289,-3.2304,-3.2335,-3.2347,-3.2374,-3.2405,-3.2436,-3.2455,-3.2486,-3.2522,-3.2532,-3.2536,-3.2537,-3.2537,-3.2539,-3.2561,-3.2564,-3.2537,-3.2537,-3.2537,0,0,-3.2134,-3.2162,-3.2177,-3.2223,-3.2247,-3.2274,-3.2281,-3.231,-3.2331,-3.2352,-3.2388,-3.2409,-3.2445,-3.2482,-3.25,-3.25,-3.255,-3.2539,-3.2539,-3.2541,-3.2563,-3.2566,-3.2568,-3.2538,-3.2537,-3.2537,0,0,-3.2147,-3.2171,-3.2195,-3.222,-3.2256,-3.2277,-3.2283,-3.2322,-3.2337,-3.2374,-3.2391,-3.2418,-3.247,-3.2495,-3.2514,-3.254,-3.2551,-3.255,-3.2553,-3.2574,-3.2576,-3.2578,-3.2587,-3.259,-3.2552,-3.2552,-3.2552,0,-3.2141,-3.2183,-3.2207,-3.2235,-3.2256,-3.2276,-3.2303,-3.2325,-3.237,-3.2384,-3.2384,-3.2451,-3.2477,-3.252,-3.2526,-3.2542,-3.255,-3.2544,-3.2573,-3.2576,-3.2578,-3.2587,-3.2591,-3.2552,-3.2552,-3.2552,-3.2552,0,-3.2175,-3.2204,-3.222,-3.2262,-3.2285,-3.2312,-3.2341,-3.2362,-3.2376,-3.2397,-3.2436,-3.2468,-3.2505,-3.2517,-3.2531,-3.2564,-3.2563,-3.2568,-3.2567,-3.258,-3.2589,-3.2593,-3.2551,-3.2551,-3.2551,-3.2551,0,0,-3.2176,-3.2232,-3.2238,-3.2258,-3.23,-3.2323,-3.2353,-3.2389,-3.2406,-3.2437,-3.2463,-3.2508,-3.2514,-3.2536,-3.2554,-3.2572,-3.2591,-3.2575,-3.2577,-3.2577,-3.2629,-3.2624,-3.2628,-3.2599,-3.26,-3.2601,-3.2626,0,-3.2194,-3.2245,-3.2269,-3.231,-3.2338,-3.2359,-3.2385,-3.2415,-3.2436,-3.2464,-3.2489,-3.252,-3.2525,-3.2539,-3.2558,-3.2584,-3.2602,-3.2583,-3.2624,-3.2625,-3.2613,-3.2633,-3.2627,-3.2649,-3.263,-3.2631,-3.2631,0,-3.2221,-3.2252,-3.2296,-3.2336,-3.2349,-3.2371,-3.2408,-3.2434,-3.2469,-3.2483,-3.2509,-3.2527,-3.256,-3.2558,-3.2605,-3.2591,-3.261,-3.2626,-3.2628,-3.2631,-3.2628,-3.2636,-3.2657,-3.266,-3.2637,-3.2636,-3.2636,0,-3.2217,-3.227,-3.2303,-3.2319,-3.2368,-3.2383,-3.2404,-3.2439,-3.246,-3.2492,-3.2506,-3.2543,-3.2562,-3.2591,-3.2618,-3.2614,-3.2663,-3.2663,-3.2676,-3.2676,-3.2684,-3.2683,-3.2707,-3.2698,-3.2698,-3.2698,-3.2698,0,-3.2235,-3.2261,-3.2302,-3.2322,-3.2352,-3.2381,-3.2411,-3.2434,-3.2465,-3.2491,-3.2512,-3.2537,-3.2572,-3.2601,-3.2623,-3.2659,-3.2668,-3.2682,-3.2687,-3.2679,-3.2677,-3.269,-3.2689,-3.2699,-3.2698,-3.2698,-3.2698,0,-3.2234,-3.2263,-3.2301,-3.2343,-3.2355,-3.2376,-3.2413,-3.2435,-3.2458,-3.2491,-3.2501,-3.2538,-3.2574,-3.2605,-3.2652,-3.2667,-3.2704,-3.2711,-3.2692,-3.2694,-3.2706,-3.2704,-3.2739,-3.2745,-3.2732,-3.2732,-3.2732,0,-3.2243,-3.2264,-3.2309,-3.2328,-3.2348,-3.2378,-3.24,-3.243,-3.2452,-3.2494,-3.2511,-3.2548,-3.258,-3.2636,-3.2669,-3.2706,-3.2713,-3.2723,-3.2719,-3.2711,-3.2713,-3.2711,-3.2713,-3.2723,-3.2723,-3.2723,-3.2723,0,-3.2256,-3.2269,-3.2299,-3.2334,-3.2359,-3.2389,-3.2419,-3.2434,-3.2469,-3.2494,-3.253,-3.2554,-3.2603,-3.2641,-3.2681,-3.2705,-3.272,-3.2724,-3.2729,-3.272,-3.2708,-3.2715,-3.2691,-3.2723,-3.2723,-3.2723,-3.2723,-3.2723,-3.226,-3.228,-3.2315,-3.2348,-3.2374,-3.2402,-3.2424,-3.2451,-3.2481,-3.2523,-3.2539,-3.2577,-3.2614,-3.267,-3.2694,-3.2725,-3.2727,-3.2734,-3.2736,-3.2737,-3.2736,-3.2704,-3.2732,-3.2732,-3.2732,-3.2733,-3.2733,0,-3.2273,-3.2297,-3.2327,-3.2369,-3.2395,-3.2407,-3.2442,-3.2464,-3.2496,-3.2529,-3.2559,-3.2602,-3.2639,-3.2675,-3.2714,-3.2732,-3.274,-3.2741,-3.274,-3.2745,-3.2731,-3.2723,-3.2734,-3.2734,-3.2734,-3.2734,-3.2734,-3.2734,-3.2283,-3.2317,-3.2335,-3.2383,-3.2407,-3.2443,-3.2462,-3.2489,-3.2515,-3.2561,-3.2592,-3.2615,-3.2649,-3.2691,-3.2726,-3.2736,-3.2749,-3.2748,-3.276,-3.2746,-3.2746,-3.2745,-3.2737,-3.2751,-3.2751,-3.2771,-3.2771,-3.2771]},{"header":{"parameterUnit":"m.s-1","parameterCategory":1,"la1":30.2991,"la2":30.254,"lo1":-89.0895,"lo2":-89.0444,"dy":0.0017,"dx":0.0017,"nx":28,"ny":28,"refTime":"2025-04-18T09:00:00:Z","depth":0,"parameterNumber":3,"parameterNumberName":"V-component_of_WINDS"},"data":[0,0,0,0,0,0,0,0,0,0,0,0,0,0,0,0,0,0,0,0,0,0,0,0,0,0,0,0,0,0,0,0,0,0,0,0,0,0,0,0,0,0,0,0,0,0,0,0,0,0,0,0,0,0,0,0,0,0,6.2563,6.2563,0,6.2561,6.2561,6.2561,6.2508,6.2506,6.2505,6.2504,6.25,6.2501,6.2502,0,0,0,0,0,0,0,0,0,0,0,0,0,6.2523,6.2524,6.2563,6.2563,6.2563,6.2561,6.2561,6.2561,6.2508,6.2506,6.2504,6.2503,6.2499,6.2501,6.2502,0,0,0,0,0,0,0,0,0,0,0,0,0,6.2533,6.2524,6.2563,6.2537,6.2534,6.2561,6.2561,6.2561,6.2508,6.2506,6.2504,6.2502,6.2499,6.25,6.2502,6.2553,0,0,6.2507,6.2508,0,0,0,0,0,0,0,0,6.2532,6.2534,6.2541,6.2539,6.2536,6.2532,6.2545,6.2558,6.2509,6.2518,6.2503,6.2501,6.2512,6.2513,6.2516,6.2553,6.2553,6.2508,6.2509,6.2509,6.251,0,0,0,0,0,0,0,6.2531,6.2534,6.2562,6.2541,6.2538,6.2525,6.2524,6.2547,6.2526,6.2517,6.2513,6.2514,6.251,6.2515,6.2516,6.2553,6.2508,6.2509,6.251,6.2511,6.2634,6.2636,0,0,0,0,0,0,6.2535,6.2534,6.2562,6.2562,6.2529,6.2527,6.2526,6.2536,6.2526,6.2523,6.2515,6.2511,6.2513,6.2514,6.2516,6.2576,6.2509,6.2511,6.2512,6.2632,6.2634,6.2637,0,0,0,0,0,0,6.2534,6.2538,6.2562,6.2547,6.2549,6.253,6.2541,6.2537,6.2541,6.2525,6.2521,6.2524,6.2511,6.2513,6.2545,6.2575,6.2512,6.2513,6.2629,6.2633,6.2636,6.2698,0,0,0,0,0,0,6.2533,6.2538,6.2557,6.2548,6.255,6.2592,6.2543,6.2538,6.2544,6.2539,6.2532,6.2529,6.251,6.2543,6.2547,6.2577,6.2515,6.2626,6.2631,6.2635,6.2693,6.2703,6.2711,0,0,0,0,0,6.2532,6.2574,6.2558,6.2562,6.2574,6.2594,6.2595,6.2573,6.2547,6.2566,6.2556,6.2529,6.2572,6.2546,6.255,6.2581,6.2624,6.2629,6.2634,6.2689,6.2701,6.2711,0,0,0,0,0,0,6.2586,6.2572,6.2554,6.2595,6.2596,6.2585,6.2608,6.2586,6.2595,6.2589,6.2561,6.256,6.2597,6.2592,6.2564,6.2632,6.2593,6.2599,6.2633,6.2645,6.2654,6.2654,6.2516,0,0,0,0,0,6.2603,6.262,6.2607,6.2644,6.2646,6.2627,6.2635,6.2618,6.2618,6.2618,6.261,6.2611,6.2625,6.2634,6.2646,6.2692,6.269,6.2716,6.2725,6.2732,6.2738,6.2764,6.2775,6.2653,6.2653,6.2653,0,0,6.2637,6.2632,6.2644,6.2655,6.2654,6.2673,6.2628,6.265,6.2664,6.2621,6.2651,6.2646,6.2645,6.2685,6.2702,6.2682,6.2772,6.2739,6.2745,6.2746,6.277,6.2782,6.2792,6.2657,6.2656,6.2656,0,0,6.271,6.2708,6.2739,6.2739,6.2739,6.2727,6.2734,6.2727,6.2722,6.2752,6.2721,6.2737,6.2761,6.2763,6.2766,6.2842,6.2818,6.2847,6.2895,6.292,6.293,6.2938,6.2967,6.2977,6.2852,6.2853,6.2853,0,6.2753,6.2781,6.2758,6.2782,6.2788,6.2752,6.2784,6.2785,6.2789,6.2794,6.2772,6.2802,6.2799,6.2839,6.2858,6.2862,6.287,6.2847,6.293,6.2939,6.2946,6.2973,6.2983,6.2856,6.2856,6.2855,6.2855,0,6.2834,6.2855,6.288,6.2886,6.2894,6.2922,6.2904,6.2915,6.2899,6.2889,6.2921,6.2916,6.2926,6.2935,6.2917,6.2973,6.2961,6.2935,6.2896,6.2962,6.2986,6.2996,6.2861,6.286,6.2859,6.2858,0,0,6.294,6.2934,6.2944,6.2947,6.2945,6.296,6.2987,6.2998,6.301,6.3013,6.3036,6.3058,6.3035,6.3039,6.3022,6.3044,6.3106,6.3016,6.3015,6.3033,6.3169,6.3189,6.3201,6.309,6.3092,6.3093,6.3169,0,6.3012,6.3058,6.3039,6.3087,6.3106,6.3073,6.3097,6.3098,6.309,6.3105,6.3096,6.3113,6.308,6.3083,6.3103,6.3095,6.3133,6.3089,6.3111,6.3112,6.3113,6.3214,6.3234,6.3306,6.3179,6.318,6.3181,0,6.3101,6.311,6.3161,6.3157,6.3165,6.3186,6.3196,6.3211,6.3212,6.3205,6.3211,6.319,6.3217,6.3178,6.3215,6.3185,6.3193,6.319,6.3193,6.3194,6.3151,6.3219,6.3328,6.334,6.3196,6.3195,6.3194,0,6.3175,6.32,6.3234,6.3237,6.3233,6.325,6.3249,6.3248,6.3257,6.3266,6.3271,6.3283,6.3289,6.3298,6.3281,6.3254,6.3321,6.328,6.3316,6.3317,6.3332,6.3331,6.3445,6.3336,6.3336,6.3336,6.3335,0,6.3257,6.3289,6.3267,6.3288,6.3324,6.3302,6.3338,6.3333,6.3334,6.3353,6.3325,6.3344,6.3319,6.3336,6.3322,6.3356,6.3359,6.3354,6.335,6.3357,6.3358,6.3362,6.3357,6.3338,6.3338,6.3337,6.3337,0,6.3345,6.3331,6.3367,6.3361,6.3361,6.3387,6.3383,6.3402,6.3393,6.3418,6.3423,6.3408,6.3427,6.341,6.3427,6.3418,6.3463,6.3452,6.3463,6.346,6.3498,6.3495,6.3619,6.3635,6.3515,6.3516,6.3517,0,6.3399,6.3423,6.3421,6.3433,6.3435,6.3453,6.3463,6.3442,6.3453,6.3458,6.3477,6.3494,6.3506,6.3537,6.3528,6.3541,6.353,6.3573,6.3532,6.3539,6.3532,6.3531,6.3534,6.3581,6.3583,6.3584,6.3585,0,6.3496,6.3489,6.3504,6.3517,6.353,6.3539,6.3546,6.3557,6.3536,6.355,6.3569,6.3579,6.3598,6.3614,6.3625,6.3624,6.3602,6.3598,6.3607,6.3615,6.3621,6.3619,6.3487,6.3595,6.3594,6.3593,6.3593,6.3592,6.3569,6.359,6.3593,6.3611,6.3615,6.3623,6.3641,6.3635,6.3651,6.3665,6.3652,6.3676,6.3678,6.369,6.3692,6.3711,6.3693,6.3706,6.3709,6.3713,6.3719,6.3618,6.3712,6.3712,6.3712,6.3711,6.3711,0,6.3666,6.3667,6.3684,6.3695,6.371,6.3689,6.3696,6.3709,6.3731,6.3735,6.3748,6.3771,6.3788,6.3781,6.3795,6.3811,6.3802,6.3816,6.3815,6.3815,6.3733,6.3725,6.3824,6.3824,6.3824,6.3824,6.3824,6.3824,6.3718,6.3753,6.3747,6.3784,6.3784,6.3808,6.3814,6.3821,6.3825,6.3852,6.3866,6.3862,6.3862,6.3877,6.3891,6.3889,6.3896,6.3915,6.3908,6.3832,6.3821,6.381,6.3802,6.3916,6.3916,6.3989,6.399,6.399]}]]